Weather History for Port Hope, MI

Change the Weather History Date:

Monday, November 5, 2012

  Actual Average Record
Temperature  
Mean Temperature 36 °F -  
Max Temperature 37 °F 48 °F 71 °F (2008)
Min Temperature 35 °F 36 °F 28 °F (2002)
Degree Days  
Heating Degree Days 29    
Moisture  
Dew Point 25 °F    
Average Humidity 63    
Maximum Humidity 73    
Minimum Humidity 55    
Precipitation  
Precipitation 0.00 in - - ()
Sea Level Pressure  
Sea Level Pressure 30.21 in    
Wind  
Wind Speed 5 mph (North)    
Max Wind Speed 14 mph    
Max Gust Speed 16 mph    
Averages and records for this station are not official NWS values.
T = Trace of Precipitation, MM = Missing Value Source: NWS Daily Summary

Daily Weather History Graph

Daily Weather History Graph

Search for Another Location

Airport:

Trip Planner

Search our weather history database for the weather conditions in past years. The results will help you decide how hot, cold, wet, or windy it might be!

Date:

Astronomy

Nov. 05, 2012 Rise Set
Actual Time 7:13 AM EST 5:15 PM EST
Civil Twilight 6:43 AM EST 5:45 PM EST
Nautical Twilight 6:08 AM EST 6:20 PM EST
Astronomical Twilight 5:35 AM EST 6:53 PM EST
Moon 10:52 PM EST (11/5) 12:32 PM EST (11/5)
Length of Visible Light 11h 02m
Length of Day
10h 01m
Waning Gibbous, 63% of the Moon is Illuminated
Nov 5
Waning Gibbous
Nov 6
Last Quarter
Nov 13
New
Nov 20
First Quarter
Nov 28
Full

Hourly Weather History & Observations

Time (EST) Temp. Windchill Dew Point Humidity Pressure Visibility Wind Dir Wind Speed Gust Speed Precip Events Conditions
12:51 AM 37.0 °F 33.3 °F 26.1 °F 65% 30.18 in - North 4.6 mph - N/A   Unknown
1:51 AM 37.0 °F 31.6 °F 24.1 °F 59% 30.18 in - North 6.9 mph - N/A   Unknown
2:51 AM 37.9 °F - 24.1 °F 57% 30.18 in - Calm Calm - N/A   Unknown
3:51 AM 37.9 °F - 27.0 °F 65% 30.18 in - Calm Calm - N/A   Unknown
4:51 AM 37.9 °F 29.6 °F 28.0 °F 68% 30.18 in - NE 13.8 mph - N/A   Unknown
5:51 AM 37.9 °F 29.6 °F 28.9 °F 70% 30.19 in - NNE 13.8 mph - N/A   Unknown
6:51 AM 37.0 °F 28.5 °F 28.9 °F 73% 30.20 in - NNE 13.8 mph - N/A   Unknown
7:51 AM 37.0 °F 32.4 °F 27.0 °F 67% 30.22 in - Variable 5.8 mph - N/A   Unknown
8:51 AM 37.0 °F 29.3 °F 26.1 °F 65% 30.23 in - North 11.5 mph 16.1 mph N/A   Unknown
9:51 AM 37.0 °F 32.4 °F 25.0 °F 62% 30.23 in - North 5.8 mph - N/A   Unknown
10:51 AM 37.9 °F 35.5 °F 26.1 °F 62% 30.24 in - Variable 3.5 mph - N/A   Unknown
11:51 AM 37.0 °F 31.0 °F 26.1 °F 65% 30.24 in - North 8.1 mph - N/A   Unknown
12:51 PM 37.9 °F 33.5 °F 25.0 °F 60% 30.23 in - North 5.8 mph - N/A   Unknown
1:51 PM 37.0 °F 32.4 °F 28.0 °F 70% 30.22 in - ENE 5.8 mph - N/A   Unknown
2:51 PM 37.0 °F 33.3 °F 28.9 °F 73% 30.21 in - North 4.6 mph - N/A   Unknown
3:51 PM 37.9 °F - 26.1 °F 62% 30.20 in - Calm Calm - N/A   Unknown
4:51 PM 37.0 °F 34.5 °F 23.0 °F 57% 30.20 in - WNW 3.5 mph - N/A   Unknown
5:51 PM 36.0 °F - 21.0 °F 55% 30.21 in - Calm Calm - N/A   Unknown
6:51 PM 36.0 °F 33.3 °F 21.0 °F 55% 30.22 in - WSW 3.5 mph - N/A   Unknown
7:51 PM 35.1 °F - 23.0 °F 61% 30.21 in - Calm Calm - N/A   Unknown
8:51 PM 36.0 °F 33.3 °F 21.0 °F 55% 30.21 in - West 3.5 mph - N/A   Unknown
9:51 PM 35.1 °F - 23.0 °F 61% 30.20 in - Calm Calm - N/A   Unknown
10:51 PM 35.1 °F - 23.0 °F 61% 30.19 in - Calm Calm - N/A   Unknown
11:51 PM 35.1 °F - 23.0 °F 61% 30.19 in - Calm Calm - N/A   Unknown